St. Cloud, MN

7:38 PM CDT on March 29, 2017 (GMT -0500)
Saint Cloud Regional

Weather History for KSTC - July, 2014

Change the Weather History Date:

Friday, July 11, 2014

  Actual Average Record
Temperature  
Mean Temperature 75 °F 71 °F  
Max Temperature 83 °F 83 °F 106 °F (1936)
Min Temperature 67 °F 59 °F 41 °F (1945)
Degree Days  
Heating Degree Days 0 1  
Month to date heating degree days 0 11  
Since 1 June heating degree days 26 89  
Since 1 July heating degree days 0 11  
Cooling Degree Days 10 6  
Month to date cooling degree days 60 65  
Year to date cooling degree days 237 185  
Since 1 June cooling degree days 193 160  
Growing Degree Days 24 (Base 50)    
Moisture  
Dew Point 66 °F    
Average Humidity 76    
Maximum Humidity 93    
Minimum Humidity 58    
Precipitation  
Precipitation 0.42 in 0.11 in 2.63 in (2016)
Month to date precipitation 0.79 1.24  
Year to date precipitation 23.32 13.72  
Snow  
Snow 0.00 in 0.00 in 0.00 in ()
Month to date snowfall 0.0 0.0  
Since 1 June snowfall 0.0 0.0  
Since 1 July snowfall 0.0 0.0  
Snow Depth 0.00 in    
Sea Level Pressure  
Sea Level Pressure 29.94 in    
Wind  
Wind Speed 10 mph (South)    
Max Wind Speed 25 mph    
Max Gust Speed 35 mph    
Visibility 8 miles    
Events Rain , Thunderstorm    
T = Trace of Precipitation, MM = Missing Value Source: NWS Daily Summary

Daily Weather History Graph

Daily Weather History Graph

Search for Another Location

Airport or City:

Trip Planner

Search our weather history database for the weather conditions in past years. The results will help you decide how hot, cold, wet, or windy it might be!

Date:

Astronomy

Jul. 11, 2014 Rise Set
Actual Time 5:38 AM CDT 9:04 PM CDT
Civil Twilight 5:01 AM CDT 9:41 PM CDT
Nautical Twilight 4:12 AM CDT 10:29 PM CDT
Astronomical Twilight 3:10 AM CDT 11:31 PM CDT
Moon 8:11 PM CDT (7/11) 4:54 AM CDT (7/11)
Length of Visible Light 16h 40m
Length of Day
15h 26m
Waxing Gibbous, 99% of the Moon is Illuminated
Jul 11
Waxing Gibbous
Jul 12
Full
Jul 18
Last Quarter
Jul 26
New
Aug 3
First Quarter

Hourly Weather History & Observations

Time (CDT) Temp. Heat Index Dew Point Humidity Pressure Visibility Wind Dir Wind Speed Gust Speed Precip Events Conditions
12:53 AM 75.9 °F - 59.0 °F 56% 29.95 in 10.0 mi South 15.0 mph 24.2 mph N/A   Overcast
1:53 AM 73.9 °F - 60.1 °F 62% 29.93 in 10.0 mi South 15.0 mph 20.7 mph N/A   Overcast
2:53 AM 73.9 °F - 59.0 °F 59% 29.91 in 10.0 mi South 21.9 mph 27.6 mph N/A   Overcast
3:53 AM 73.0 °F - 59.0 °F 61% 29.89 in 10.0 mi South 21.9 mph 29.9 mph N/A   Overcast
4:26 AM 69.8 °F - 62.6 °F 78% 29.88 in 10.0 mi South 20.7 mph 33.4 mph 0.03 in Rain , Thunderstorm Light Rain
4:36 AM 69.8 °F - 62.6 °F 78% 29.88 in 1.8 mi South 19.6 mph 28.8 mph 0.09 in Rain , Thunderstorm Heavy Thunderstorms and Rain
4:46 AM 69.8 °F - 62.6 °F 78% 29.89 in 3.0 mi South 17.3 mph 34.5 mph 0.24 in Rain , Thunderstorm Thunderstorms and Rain
4:53 AM 69.1 °F - 63.0 °F 81% 29.90 in 6.0 mi South 20.7 mph 27.6 mph 0.25 in Rain , Thunderstorm Light Thunderstorms and Rain
5:00 AM 69.8 °F - 62.6 °F 78% 29.89 in 10.0 mi South 20.7 mph 28.8 mph 0.00 in   Overcast
5:18 AM 69.8 °F - 62.6 °F 78% 29.88 in 10.0 mi South 17.3 mph 28.8 mph 0.00 in   Overcast
5:28 AM 69.8 °F - 62.6 °F 78% 29.88 in 10.0 mi South 16.1 mph 25.3 mph 0.00 in Thunderstorm Overcast
5:53 AM 68.0 °F - 64.0 °F 87% 29.93 in 7.0 mi NW 10.4 mph 18.4 mph 0.02 in Rain , Thunderstorm Light Thunderstorms and Rain
6:07 AM 66.2 °F - 64.4 °F 94% 29.94 in 4.0 mi ENE 3.5 mph - 0.04 in Rain , Thunderstorm Thunderstorms and Rain
6:43 AM 68.0 °F - 64.4 °F 88% 29.93 in 9.0 mi SSE 6.9 mph - 0.08 in   Overcast
6:53 AM 68.0 °F - 64.9 °F 90% 29.95 in 6.0 mi SE 5.8 mph - 0.08 in Rain Light Rain
7:11 AM 68.0 °F - 64.4 °F 88% 29.95 in 6.0 mi ESE 4.6 mph - 0.01 in Rain Light Rain
7:53 AM 66.9 °F - 64.9 °F 93% 29.96 in 2.5 mi SE 6.9 mph - 0.04 in Rain Light Rain
8:03 AM 66.2 °F - 64.4 °F 94% 29.94 in 3.0 mi SE 6.9 mph - 0.01 in Rain Light Rain
8:12 AM 68.0 °F - 64.4 °F 88% 29.94 in 4.0 mi SSE 5.8 mph - 0.01 in Rain Light Rain
8:53 AM 68.0 °F - 64.9 °F 90% 29.95 in 6.0 mi South 10.4 mph - 0.03 in   Overcast
9:10 AM 68.0 °F - 64.4 °F 88% 29.94 in 10.0 mi South 10.4 mph - N/A   Overcast
9:43 AM 68.0 °F - 64.4 °F 88% 29.93 in 10.0 mi South 11.5 mph - N/A   Overcast
9:53 AM 68.0 °F - 66.0 °F 93% 29.94 in 10.0 mi South 10.4 mph - N/A   Overcast
10:53 AM 70.0 °F - 66.0 °F 87% 29.94 in 10.0 mi South 9.2 mph - N/A   Overcast
11:53 AM 72.0 °F - 66.0 °F 81% 29.95 in 10.0 mi South 11.5 mph - N/A   Overcast
12:53 PM 73.0 °F - 66.0 °F 79% 29.96 in 10.0 mi SSW 15.0 mph - N/A   Overcast
1:53 PM 73.9 °F - 66.9 °F 79% 29.96 in 10.0 mi SSW 15.0 mph - N/A   Overcast
2:53 PM 77.0 °F - 68.0 °F 74% 29.96 in 10.0 mi SW 11.5 mph - N/A   Overcast
3:41 PM 78.8 °F - 69.8 °F 74% 29.94 in 10.0 mi SSW 10.4 mph - N/A   Overcast
3:53 PM 80.1 °F 82.9 °F 69.1 °F 69% 29.95 in 10.0 mi SSW 10.4 mph - N/A   Mostly Cloudy
4:53 PM 82.0 °F 85.9 °F 70.0 °F 67% 29.95 in 10.0 mi SW 9.2 mph - N/A   Mostly Cloudy
5:05 PM 82.4 °F 86.3 °F 69.8 °F 66% 29.94 in 10.0 mi WSW 6.9 mph - N/A   Scattered Clouds
5:41 PM 82.4 °F 86.3 °F 69.8 °F 66% 29.94 in 10.0 mi SSW 6.9 mph - N/A   Mostly Cloudy
5:53 PM 82.0 °F 85.9 °F 70.0 °F 67% 29.95 in 10.0 mi WSW 5.8 mph - N/A   Mostly Cloudy
6:00 PM 82.4 °F 86.3 °F 69.8 °F 66% 29.94 in 10.0 mi West 4.6 mph - N/A   Mostly Cloudy
6:53 PM 82.0 °F 86.3 °F 71.1 °F 69% 29.95 in 10.0 mi South 6.9 mph - N/A   Clear
7:53 PM 81.0 °F 85.2 °F 72.0 °F 74% 29.97 in 10.0 mi SSW 5.8 mph - N/A   Clear
8:53 PM 77.0 °F - 72.0 °F 84% 29.98 in 9.0 mi South 4.6 mph - N/A   Clear
9:53 PM 73.9 °F - 71.1 °F 91% 30.00 in 7.0 mi SSE 3.5 mph - N/A   Clear
10:53 PM 73.9 °F - 71.1 °F 91% 30.00 in 6.0 mi SSE 3.5 mph - N/A   Clear
11:53 PM 72.0 °F - 70.0 °F 93% 30.01 in 3.0 mi Calm Calm - N/A   Partly Cloudy